Terminal Aerodrome Forecast
Issued by NWS

Home | Current Version | Previous Version | Text Only | Print | Product List | Glossary On
Versions: 1 2 3 4 5 6 7 8 9 10 11 12 13 14 15 16 17 18 19 20 21 22 23 24 25 26 27 28 29 30 31 32 33 34 35 36 37 38 39 40 41 42 43 44 45 46 47 48 49 50
000
FTUS41 KCTP 260338 AAA
TAFJST
TAF AMD
KJST 260338Z 2604/2624 34005KT P6SM OVC150
     FM260900 03005KT 2SM -SN OVC010
     FM261200 04005KT 1SM -SN OVC005
     FM262100 32005KT 3SM -SHSN OVC004=

USA.gov is the U.S. government's official web portal to all federal, state and local government web resources and services.